Location: Malvern Link
(52.1333°N, 2.3000°W)
Time: 03:33:29
(UTC+00:00)

Cosmos 1634 Rocket - Pass Details

Date: 07 December 2021
Orbit: 959 x 993 km, 82.9° (Epoch: 21 January)

Event Time Altitude Azimuth Distance (km) Brightness Sun altitude
Exits shadow 05:25:27 44° 255° (WSW) 1,328 4.2 -23.0°
Drops below altitude 10° 05:30:42 10° 200° (SSW) 2,709 6.2 -22.2°
Sets 05:33:17 0° 194° (SSW) 3,647 7.0 -21.8°
